Wetbulb
45.38 41.92 39.58 41.83 42.27 42.53 40.90 38.77 38.66 41.98 45.08 42.35 42.28 42.50 44.40 47.24 46.65 46.30 47.08 47.18 46.87 46.71 48.62 55.16 63.72 65.04 64.43 64.15 64.46 65.21 65.25 66.09 66.79 62.89 60.70 59.83 59.64 58.69 59.77 60.25 59.15 53.55 52.35 50.25
41.50 38.60 43.07 44.16 44.06 43.09 41.81 39.38 38.87 41.91 44.17 42.43 41.95 41.14 44.31 44.87 45.03 44.70 45.10 46.87 48.41 49.70 50.10 51.67 59.55 63.68 63.55 63.30 63.79 64.28 64.55 65.90 65.60 64.74 63.97 62.07 60.10 58.92 58.00 55.97 53.19 53.16 50.72 49.70
39.08 41.37 44.75 42.87 42.42 40.95 40.56 38.37 38.80 38.73 42.56 43.07 41.05 38.81 40.68 44.32 45.38 46.69 48.61 49.02 50.51 50.71 51.34 52.85 53.64 62.79 63.60 62.56 63.17 63.65 64.37 65.76 65.53 64.23 60.72 58.98 58.99 57.31 55.64 52.76 50.32 50.53 50.85 49.94
40.09 42.61 41.12 41.03 40.64 41.75 36.41 42.27 41.38 40.62 38.14 33.84 40.89 30.42 37.78 42.14 43.73 45.34 47.84 48.73 49.90 51.34 52.63 53.50 53.81 58.95 62.89 63.18 63.50 64.13 64.40 65.53 65.52 62.70 60.92 59.25 58.08 55.37 55.88 52.91 52.21 52.12 53.05 52.25
37.64 38.59 38.71 40.28 41.00 42.39 39.61 43.25 41.71 40.11 37.74 36.41 36.29 32.66 36.30 41.63 39.88 40.39 45.71 48.60 50.81 52.85 54.01 54.43 54.20 56.56 63.49 63.69 62.93 63.54 64.35 64.58 63.85 62.35 62.61 60.41 58.10 56.07 53.41 52.64 52.36 52.54 53.07 53.56
39.81 42.00 41.77 43.54 43.89 43.73 44.61 41.74 39.22 37.23 35.54 31.31 34.32 33.58 34.42 37.75 39.02 41.86 46.81 48.14 50.85 53.84 56.31 58.50 58.10 60.51 62.30 63.17 63.17 63.43 63.47 63.16 61.58 60.96 60.07 58.33 55.41 53.71 52.44 52.02 51.76 52.54 52.89 53.40
35.33 38.06 40.87 43.65 39.32 41.66 42.96 38.49 32.18 30.90 29.64 29.46 36.13 34.15 35.54 40.15 42.52 43.80 47.04 48.00 50.63 53.50 56.18 58.56 59.83 60.67 61.56 62.22 62.71 62.62 62.38 59.90 60.44 59.48 58.95 57.59 57.32 57.40 54.73 53.63 53.04 52.41 52.70 52.53
30.78 30.76 37.71 41.26 40.05 37.50 39.74 38.14 31.90 24.96 26.99 29.93 35.51 32.21 36.17 42.03 44.63 47.28 49.13 48.40 48.68 49.84 52.76 54.54 59.03 60.39 61.73 61.40 61.12 60.63 59.94 59.49 60.50 59.81 59.32 58.98 59.24 58.65 58.28 55.96 55.29 53.48 52.75 52.60
31.56 31.30 38.62 40.55 41.41 41.57 38.25 35.84 39.97 32.84 31.55 30.39 32.94 37.13 41.07 42.15 42.29 44.78 47.67 47.45 46.77 46.90 48.72 50.84 54.42 58.69 59.97 60.11 60.45 60.25 60.17 59.61 58.95 58.48 58.54 58.60 59.64 58.77 57.33 57.03 55.80 55.10 54.22 54.12
36.45 30.13 36.44 38.71 42.47 40.58 40.23 41.58 34.73 34.04 26.28 25.60 31.28 31.77 32.08 36.67 38.97 43.78 45.65 45.30 45.63 46.32 47.19 48.54 50.96 55.04 56.95 58.69 59.58 60.09 60.39 59.28 59.24 59.39 59.37 58.40 58.75 57.24 56.48 55.58 54.51 54.45 53.37 51.54
37.26 33.84 33.38 36.58 35.90 34.85 36.00 34.71 36.33 36.96 35.25 29.64 27.37 32.22 39.37 38.27 41.74 42.78 43.88 45.11 44.58 45.06 45.25 47.08 46.99 49.40 51.94 52.17 52.16 53.25 52.72 52.62 52.19 53.40 55.16 54.36 52.82 51.49 50.51 49.66 48.84 48.25 47.66 47.63
37.96 32.80 29.15 33.02 37.09 37.50 38.09 35.23 35.38 31.98 30.25 34.28 33.42 32.78 40.27 40.28 42.59 43.00 42.22 43.40 43.84 43.69 43.40 44.25 46.85 47.50 46.48 46.16 45.26 45.75 46.21 46.56 46.98 46.55 46.48 45.68 44.94 44.04 43.28 43.09 43.84 44.95 43.51 43.97
37.24 31.96 27.52 29.69 34.42 36.18 34.77 35.89 36.01 35.47 34.23 31.20 29.41 32.38 39.22 40.53 41.22 41.67 41.76 42.09 42.64 43.16 42.95 43.04 44.57 44.42 44.11 43.13 43.52 43.59 43.65 44.14 44.36 43.97 43.02 42.53 42.37 42.12 41.71 41.75 42.01 42.83 43.26 43.36
40.82 32.54 30.49 27.28 29.77 32.93 31.62 33.53 35.04 34.03 30.12 30.08 30.99 33.30 37.37 38.80 39.73 40.84 41.12 41.23 42.16 42.27 42.50 43.03 42.65 42.20 41.81 42.06 42.44 41.61 41.40 42.35 42.50 42.24 40.95 40.28 40.48 40.41 40.58 40.87 40.64 40.57 41.27 41.22
34.70 29.97 30.80 31.70 32.76 32.37 31.92 32.10 32.87 32.58 32.84 31.80 32.77 32.68 37.69 39.37 40.14 41.12 41.39 41.09 41.49 41.21 41.23 41.17 40.98 41.21 41.31 40.88 41.09 41.31 40.93 41.07 41.48 40.98 40.46 39.81 40.45 40.95 41.11 41.12 41.14 41.38 41.41 41.09
32.91 29.30 30.23 29.03 33.41 32.67 31.51 33.96 34.16 33.92 34.01 32.89 33.33 34.46 40.22 40.82 41.27 41.19 40.89 40.67 40.19 40.01 40.22 40.56 40.64 40.79 40.17 40.09 39.86 40.25 40.22 40.22 41.63 40.81 39.96 40.61 40.78 40.79 40.48 40.60 40.66 40.86 40.59 40.61
31.84 30.02 29.85 27.51 30.82 31.82 31.23 34.12 34.31 34.54 34.95 34.87 32.58 37.64 39.74 39.47 40.24 41.15 41.11 41.00 40.69 40.31 39.98 39.96 40.09 39.84 39.73 39.65 40.06 39.61 39.79 40.84 41.03 40.55 40.47 40.40 40.61 40.22 40.22 40.51 40.56 40.20 39.95 40.47
29.89 30.33 30.07 27.87 30.26 27.21 35.10 38.28 37.59 35.91 35.97 37.04 37.11 37.88 40.15 41.01 41.27 41.73 42.34 42.01 41.03 40.95 40.20 39.88 39.56 39.12 39.64 39.77 39.58 39.79 40.14 40.04 39.96 39.73 39.69 40.03 40.12 39.62 39.68 39.84 39.64 39.58 40.05 39.68
32.56 30.64 28.89 27.11 26.95 31.42 35.03 36.07 35.84 34.94 35.42 38.48 38.10 38.85 39.35 39.85 40.31 41.30 41.44 42.46 42.55 41.88 41.26 40.60 40.48 39.56 39.16 39.15 39.07 39.07 38.97 39.24 39.39 38.94 39.16 39.48 39.95 39.58 39.61 39.21 39.02 39.04 39.54 39.19
31.93 31.72 30.16 28.24 26.75 26.28 34.08 37.64 38.77 38.43 32.59 38.11 39.44 38.65 38.36 39.22 37.05 39.17 40.82 41.84 41.79 41.52 40.82 39.55 39.03 38.52 38.92 38.07 39.27 39.26 38.72 39.22 38.63 38.81 38.51 38.99 39.29 39.04 38.44 38.20 38.02 37.88 37.72 37.37
27.35 28.46 26.67 27.03 27.53 31.06 36.81 38.41 38.53 32.38 36.03 38.49 39.99 39.43 38.38 39.16 41.21 40.30 40.29 40.33 40.74 40.36 39.68 38.86 38.36 38.42 38.24 38.49 39.40 38.28 38.47 38.12 38.28 38.58 38.13 37.68 37.73 37.14 36.98 36.77 36.63 35.93 35.21 34.50
29.02 27.08 26.05 26.58 26.25 26.30 38.57 37.71 34.50 38.56 39.72 40.30 40.19 39.90 39.01 40.18 39.50 39.40 39.32 38.68 38.54 38.32 38.25 37.76 37.19 37.00 37.51 38.50 39.16 37.83 37.66 37.56 37.77 37.27 36.26 35.69 35.60 35.76 35.02 34.63 34.09 33.73 33.85 33.82
31.46 33.71 31.53 31.97 32.49 38.87 39.57 39.37 39.95 40.60 41.00 41.22 41.28 41.24 40.76 39.75 39.51 39.18 38.32 37.50 37.59 37.76 37.04 37.41 37.02 36.46 37.05 38.08 38.96 37.79 36.47 36.88 36.31 36.11 35.51 35.16 33.99 33.76 33.54 33.60 33.50 34.12 33.73 33.56
34.08 35.29 34.58 34.80 37.73 37.86 39.92 41.14 41.12 41.50 41.43 41.91 41.75 42.02 41.07 40.51 39.67 38.34 37.59 36.84 36.68 36.53 36.42 36.55 36.60 36.28 35.99 37.59 37.93 37.50 36.52 36.36 35.84 34.85 34.13 33.60 34.74 32.50 32.25 32.93 33.14 33.43 33.32 32.94
34.87 35.02 33.89 34.14 36.80 37.74 39.53 40.50 41.49 41.65 41.25 41.06 41.66 42.20 41.43 40.48 38.76 38.72 37.28 36.70 36.87 36.46 36.23 37.16 37.00 36.69 36.32 36.63 36.13 36.21 35.93 35.89 34.70 34.20 32.95 32.35 32.03 31.40 31.59 32.02 32.64 33.86 34.38 34.42
33.70 33.95 34.08 34.57 38.60 39.11 38.38 40.62 41.63 40.69 41.18 41.68 40.81 41.00 41.30 40.82 39.92 38.94 37.88 37.70 36.82 36.20 36.09 36.22 36.73 36.68 35.60 35.86 35.50 35.52 35.84 35.64 34.49 33.16 32.88 33.14 31.77 31.22 31.39 31.64 31.87 33.12 33.74 34.49
MSLP
1015.50 1015.61 1015.69 1015.62 1015.80 1015.89 1015.83 1015.63 1014.95 1013.98 1013.43 1013.42 1012.65 1012.02 1011.68 1011.25 1011.07 1010.83 1010.69 1010.35 1010.25 1010.02 1009.45 1009.63 1009.60 1009.85 1010.33 1010.94 1011.70 1012.39 1012.95 1013.52 1014.42 1015.32 1015.63 1016.42 1016.85 1017.67 1018.06 1018.41 1018.86 1019.79 1020.54 1020.93
1016.03 1015.73 1015.38 1015.38 1015.33 1015.40 1015.31 1015.25 1014.63 1013.89 1013.62 1013.74 1013.20 1012.29 1012.09 1012.01 1011.50 1011.44 1011.25 1010.97 1010.74 1010.47 1009.83 1009.67 1009.51 1009.72 1009.96 1010.33 1011.04 1011.88 1012.42 1013.15 1014.08 1014.95 1015.44 1016.18 1016.93 1017.60 1017.87 1018.66 1019.20 1019.82 1020.39 1020.95
1016.30 1015.63 1015.34 1015.27 1015.10 1015.08 1014.75 1014.91 1014.77 1014.74 1014.21 1014.18 1013.55 1012.93 1012.72 1012.51 1012.27 1012.10 1011.81 1011.59 1011.07 1010.75 1010.15 1009.58 1009.55 1009.44 1009.81 1010.24 1010.69 1011.36 1012.37 1012.87 1013.68 1013.62 1015.29 1016.33 1017.20 1017.95 1018.54 1019.07 1019.58 1020.09 1020.53 1021.20
1016.14 1015.58 1015.49 1015.21 1015.11 1015.12 1014.60 1014.43 1014.81 1014.77 1014.73 1014.77 1014.73 1014.31 1013.69 1013.26 1012.70 1012.42 1012.14 1011.64 1011.04 1010.43 1010.15 1009.63 1009.37 1009.12 1009.25 1009.53 1010.52 1011.02 1011.52 1012.43 1013.08 1013.83 1014.37 1015.49 1016.41 1017.42 1018.30 1018.93 1019.69 1020.19 1020.62 1021.75
1016.22 1015.99 1015.85 1015.42 1014.96 1014.98 1014.62 1014.41 1014.80 1015.17 1015.40 1015.33 1015.41 1015.22 1014.24 1014.15 1013.67 1013.27 1012.35 1011.74 1011.01 1010.29 1009.86 1009.36 1009.11 1008.87 1008.68 1009.45 1009.86 1010.58 1011.35 1012.11 1012.85 1013.53 1014.06 1015.60 1016.69 1017.69 1018.79 1019.92 1020.74 1020.16 1020.48 1021.55
1016.75 1016.32 1016.19 1015.52 1014.93 1014.97 1014.70 1014.75 1015.16 1015.72 1015.85 1015.89 1016.58 1016.38 1015.31 1015.33 1015.21 1014.10 1012.79 1012.08 1011.14 1010.11 1009.39 1008.93 1008.70 1008.57 1008.98 1009.62 1010.29 1010.97 1011.84 1012.78 1013.50 1014.25 1015.40 1016.28 1017.03 1017.82 1018.76 1019.36 1020.31 1021.00 1020.24 1021.94
1017.49 1016.70 1016.22 1016.00 1015.48 1015.19 1015.34 1015.46 1016.15 1016.48 1016.68 1016.84 1016.69 1016.50 1016.40 1016.39 1015.39 1014.34 1013.23 1012.52 1011.64 1010.63 1009.95 1009.35 1009.00 1008.99 1009.39 1009.94 1010.73 1011.53 1012.23 1013.10 1013.94 1014.77 1015.63 1016.39 1016.69 1017.36 1016.68 1018.08 1018.47 1019.22 1020.48 1021.55
1018.83 1017.36 1016.85 1016.40 1016.47 1016.48 1016.73 1017.10 1017.92 1018.30 1018.38 1017.69 1016.77 1016.82 1016.86 1016.67 1015.55 1014.47 1013.74 1013.23 1012.40 1011.72 1011.11 1010.68 1010.00 1009.67 1009.95 1010.54 1011.19 1012.02 1012.76 1013.58 1014.34 1015.15 1015.78 1016.35 1016.75 1017.64 1017.75 1018.27 1018.22 1019.09 1019.75 1020.80
1019.23 1018.34 1017.27 1016.89 1016.75 1016.97 1016.95 1017.73 1018.38 1018.57 1018.95 1018.43 1017.28 1016.61 1016.86 1016.22 1015.39 1014.77 1014.13 1013.35 1013.24 1012.93 1012.61 1011.94 1011.33 1010.87 1011.11 1011.47 1012.00 1012.68 1013.54 1014.11 1014.67 1014.99 1015.95 1016.42 1017.16 1017.19 1017.98 1018.64 1018.88 1019.34 1019.83 1020.35
1019.41 1019.21 1017.78 1017.19 1017.17 1017.20 1017.15 1017.96 1018.34 1018.69 1019.02 1018.22 1017.05 1016.99 1017.02 1017.10 1016.56 1015.83 1015.20 1015.11 1014.58 1014.09 1013.53 1013.05 1012.61 1012.40 1012.36 1012.52 1012.90 1013.59 1014.10 1014.44 1014.59 1015.43 1015.90 1016.31 1017.19 1017.70 1018.05 1018.53 1019.03 1019.54 1020.00 1020.42
1019.35 1019.80 1018.44 1017.82 1017.65 1017.74 1017.80 1018.00 1018.36 1018.83 1018.91 1018.75 1018.01 1017.35 1017.24 1017.50 1017.14 1016.78 1016.27 1015.90 1015.65 1015.11 1014.85 1014.55 1014.30 1014.03 1014.12 1014.09 1014.35 1014.55 1014.99 1015.66 1015.83 1016.51 1016.89 1016.88 1017.64 1018.00 1018.35 1018.97 1019.46 1019.94 1020.47 1020.85
1019.51 1020.03 1019.67 1018.58 1018.03 1017.97 1017.89 1018.26 1018.60 1019.02 1019.06 1018.81 1018.49 1017.59 1017.29 1017.39 1017.42 1017.13 1016.93 1016.63 1016.47 1016.06 1015.86 1015.62 1015.44 1015.39 1015.47 1015.68 1014.87 1015.84 1016.16 1016.64 1017.17 1017.39 1017.76 1018.30 1018.49 1018.91 1019.42 1019.90 1020.11 1020.50 1020.96 1021.41
1019.44 1019.99 1019.88 1018.85 1018.67 1018.23 1018.21 1018.42 1018.62 1018.87 1019.01 1018.57 1018.23 1017.34 1017.15 1017.35 1017.37 1017.24 1017.24 1017.11 1017.04 1016.87 1016.63 1016.57 1016.51 1016.69 1016.65 1016.79 1016.91 1017.13 1017.71 1017.85 1018.25 1018.28 1018.61 1019.12 1019.63 1019.89 1020.32 1020.71 1020.91 1021.23 1021.56 1021.89
1019.51 1020.25 1020.17 1019.90 1019.37 1019.24 1018.93 1018.48 1018.55 1018.63 1018.59 1018.12 1017.71 1017.19 1016.91 1017.15 1017.40 1017.44 1017.48 1017.54 1017.49 1017.50 1017.57 1017.55 1017.61 1017.77 1017.85 1018.12 1018.18 1018.36 1018.69 1018.98 1019.24 1019.31 1019.67 1020.18 1020.60 1020.90 1021.30 1021.38 1021.62 1021.94 1022.11 1022.35
1020.04 1020.49 1020.51 1019.82 1019.33 1019.23 1018.85 1018.27 1018.11 1018.17 1017.63 1017.57 1017.10 1017.06 1016.79 1016.90 1017.23 1017.48 1017.62 1017.77 1017.79 1017.90 1018.15 1018.07 1018.30 1018.54 1018.76 1019.02 1019.17 1019.52 1019.75 1019.92 1020.03 1020.23 1020.58 1021.21 1021.60 1021.78 1022.07 1022.33 1022.54 1022.64 1022.80 1023.15
1020.82 1020.69 1020.84 1020.00 1019.14 1018.80 1018.22 1017.39 1017.25 1017.24 1017.04 1016.85 1016.64 1016.63 1016.43 1016.83 1017.16 1017.48 1017.72 1017.95 1018.13 1018.33 1018.36 1018.53 1018.76 1019.11 1019.66 1019.93 1020.09 1020.50 1020.79 1020.97 1020.92 1021.20 1021.66 1022.10 1022.24 1022.49 1022.72 1023.02 1023.20 1023.34 1023.71 1023.94
1021.31 1021.24 1021.27 1020.33 1019.19 1018.24 1017.28 1016.06 1016.07 1016.05 1015.94 1016.02 1016.19 1016.02 1016.44 1016.87 1017.08 1017.34 1017.62 1017.94 1018.28 1018.54 1018.87 1019.14 1019.47 1019.97 1020.39 1020.60 1020.83 1021.28 1021.61 1021.70 1021.72 1022.05 1022.50 1022.68 1022.90 1023.22 1023.46 1023.73 1024.02 1024.27 1024.43 1024.45
1021.40 1021.81 1021.64 1020.85 1019.42 1017.98 1015.81 1015.27 1015.22 1015.36 1015.22 1015.34 1015.64 1015.83 1016.12 1016.42 1016.74 1017.00 1017.43 1017.79 1018.21 1018.75 1019.23 1019.64 1020.03 1020.45 1020.87 1021.21 1021.55 1021.85 1022.14 1022.39 1022.67 1023.01 1023.42 1023.70 1023.81 1024.15 1024.45 1024.57 1024.75 1024.76 1024.71 1024.76
1021.24 1021.74 1021.89 1021.43 1020.23 1017.82 1015.30 1015.01 1014.83 1014.89 1014.68 1014.57 1015.18 1015.71 1016.16 1016.61 1016.89 1016.93 1017.13 1017.59 1018.00 1018.57 1019.27 1019.87 1020.32 1020.83 1021.29 1021.63 1022.00 1022.33 1022.79 1023.11 1023.39 1023.74 1023.94 1024.16 1024.21 1024.28 1024.47 1024.67 1024.81 1024.87 1024.87 1024.84
1021.61 1021.73 1021.96 1021.70 1020.56 1018.06 1015.46 1014.72 1014.38 1014.51 1014.63 1014.31 1014.88 1015.56 1016.19 1016.73 1016.94 1016.84 1017.04 1017.56 1018.15 1018.70 1019.28 1019.92 1020.67 1021.26 1021.66 1022.12 1022.26 1022.41 1022.82 1023.17 1023.57 1023.90 1024.13 1024.35 1024.37 1024.53 1024.85 1025.01 1025.02 1025.16 1025.22 1025.31
1021.61 1021.91 1021.77 1021.25 1020.24 1017.69 1015.44 1014.89 1014.65 1014.80 1014.95 1014.45 1014.79 1015.30 1016.00 1016.40 1016.28 1016.58 1016.99 1017.68 1018.27 1018.90 1019.54 1020.30 1020.84 1021.19 1021.80 1022.30 1022.55 1022.88 1023.28 1023.64 1024.01 1024.19 1024.48 1024.75 1024.97 1025.15 1025.31 1025.39 1025.43 1025.46 1025.54 1025.62
1019.65 1020.33 1020.78 1020.57 1019.42 1017.04 1015.09 1015.19 1014.99 1014.09 1014.02 1014.28 1014.76 1015.02 1015.53 1015.75 1016.32 1016.85 1017.35 1017.77 1018.35 1019.03 1019.87 1020.50 1020.96 1021.59 1022.14 1022.48 1022.83 1023.46 1023.83 1024.19 1024.39 1024.65 1024.91 1025.18 1025.37 1025.42 1025.46 1025.44 1025.59 1025.69 1025.69 1025.60
1018.55 1017.36 1017.78 1017.85 1016.07 1014.72 1014.38 1013.91 1013.58 1013.74 1013.80 1014.01 1014.37 1014.60 1015.02 1015.58 1016.13 1016.73 1017.43 1018.02 1018.55 1019.07 1019.83 1020.56 1021.13 1021.95 1022.48 1022.74 1022.99 1023.56 1024.27 1024.47 1024.71 1024.97 1025.20 1025.34 1025.54 1025.70 1025.76 1025.75 1025.69 1025.64 1025.70 1025.52
1017.23 1016.89 1016.71 1016.47 1014.03 1014.04 1013.89 1013.66 1013.55 1013.47 1013.64 1013.52 1013.76 1014.10 1014.70 1015.14 1015.72 1016.50 1017.25 1018.02 1018.60 1019.27 1019.87 1020.61 1021.36 1022.01 1022.64 1023.06 1023.29 1023.65 1024.32 1024.64 1024.85 1025.12 1025.39 1025.61 1025.63 1025.90 1026.03 1025.91 1025.83 1025.71 1025.48 1025.26
1016.20 1016.22 1015.92 1015.03 1013.53 1013.35 1013.22 1012.92 1012.81 1013.01 1013.25 1013.37 1013.53 1013.71 1014.09 1014.76 1015.41 1016.03 1016.89 1017.77 1018.45 1019.08 1019.84 1020.41 1021.06 1021.83 1022.64 1023.17 1023.55 1023.95 1024.40 1024.83 1025.11 1025.36 1025.65 1025.83 1025.97 1026.15 1026.09 1025.96 1025.88 1025.57 1025.39 1025.11
1014.97 1014.37 1014.30 1012.92 1012.02 1012.11 1011.86 1011.66 1012.05 1012.55 1012.55 1012.55 1013.14 1013.55 1013.80 1014.27 1014.78 1015.65 1016.51 1017.25 1018.07 1018.87 1019.77 1020.49 1021.21 1021.91 1022.71 1023.26 1023.72 1024.13 1024.46 1024.88 1025.22 1025.44 1025.80 1025.92 1026.01 1026.27 1026.19 1026.05 1025.78 1025.59 1025.31 1024.93
Wind_Speed
4 4 2 4 3 5 6 5 12 15 13 6 10 15 14 16 12 11 11 12 10 8 9 6 12 14 13 15 15 17 15 14 10 6 5 5 5 6 6 7 9 7 5 4
4 1 2 4 5 4 6 10 9 10 4 4 9 17 10 12 11 8 7 9 11 10 12 5 6 14 15 16 16 16 16 14 11 8 4 3 4 3 4 4 5 6 6 4
3 3 3 1 6 6 7 4 7 8 7 2 12 5 8 20 9 8 13 10 10 9 13 12 5 14 15 16 17 16 15 14 12 13 8 6 6 4 3 5 5 5 5 5
4 3 4 4 4 2 5 2 7 4 2 5 10 3 5 20 19 21 18 15 13 14 10 12 10 12 16 16 13 16 16 15 11 11 10 8 6 4 3 5 6 8 11 7
5 5 5 3 4 2 7 10 1 2 1 1 13 2 2 16 20 25 24 17 14 12 11 13 12 12 14 12 14 14 13 12 6 9 7 6 6 7 7 7 8 6 10 1
5 4 2 4 5 0 12 3 3 3 1 3 9 3 5 12 18 22 20 15 14 12 10 7 6 6 8 8 10 9 10 7 7 9 9 11 14 13 10 11 8 5 7 9
7 4 4 2 5 4 11 7 4 5 7 3 5 3 4 15 22 15 15 14 12 13 10 4 6 8 9 10 9 8 9 10 11 11 12 13 11 8 16 14 11 14 10 6
5 7 6 6 2 3 4 3 3 1 4 7 7 7 6 11 14 15 14 13 14 16 13 13 8 8 10 10 11 11 11 12 10 9 10 10 7 4 2 4 7 6 7 7
3 6 5 0 3 2 2 4 2 3 1 3 4 1 4 17 20 20 18 18 16 15 14 14 13 7 10 11 10 11 12 13 13 14 12 12 7 7 5 7 5 5 6 7
2 5 2 5 0 4 4 3 1 3 5 5 5 3 9 14 16 16 15 15 16 14 14 14 13 12 12 11 11 10 10 13 9 8 9 7 5 5 6 6 6 4 4 4
3 2 6 2 4 2 3 3 4 2 1 2 5 3 5 1 9 11 12 12 12 13 12 12 12 13 13 14 13 12 12 11 11 8 7 9 7 7 7 6 5 5 6 6
1 3 4 5 5 3 1 2 4 2 2 0 1 4 3 2 5 6 7 9 11 10 11 10 11 14 14 12 13 13 13 11 10 9 11 11 10 10 10 9 9 9 9 8
3 1 4 5 2 2 2 1 2 2 2 3 1 2 1 2 2 5 6 7 8 9 10 11 14 13 13 12 12 13 11 11 11 12 13 12 12 12 12 11 11 11 11 10
3 3 5 5 4 1 5 4 1 2 1 1 4 4 2 3 2 3 4 4 6 9 10 9 11 12 11 12 12 12 12 12 11 14 13 12 12 12 11 11 11 11 10 10
3 3 3 6 10 4 7 14 6 6 4 3 2 3 2 2 2 2 2 4 7 8 8 10 11 11 12 13 13 12 12 12 12 14 13 12 11 11 11 11 10 10 10 8
2 2 2 5 1 4 7 8 6 5 4 5 4 5 3 1 2 4 4 4 6 6 7 9 10 12 11 11 12 11 10 10 11 12 12 9 10 10 9 9 9 9 8 7
1 1 3 5 4 9 5 5 6 4 4 5 4 4 5 3 4 4 5 6 7 7 7 8 9 9 9 9 9 11 9 9 11 11 9 9 9 9 8 7 7 6 5 4
5 2 1 4 6 2 3 1 3 5 5 6 2 4 5 4 3 3 4 6 7 8 8 8 8 8 8 8 9 10 9 9 10 9 8 7 7 7 5 5 5 4 3 3
3 4 1 1 2 8 3 3 5 5 5 7 6 4 4 4 2 3 6 6 8 9 8 7 7 7 8 9 9 11 10 9 9 8 7 6 5 5 4 4 4 3 3 3
5 5 2 2 1 4 4 1 2 3 5 4 5 6 6 4 2 3 5 5 6 8 9 10 9 7 9 7 8 10 9 9 8 6 6 5 5 5 4 4 4 3 3 3
4 1 4 2 3 9 7 1 1 3 4 4 5 6 7 5 3 4 5 5 6 7 11 10 9 10 9 8 8 10 8 8 6 6 6 6 5 5 4 3 2 3 2 2
8 8 5 3 3 7 6 4 6 5 2 4 5 5 8 5 5 4 5 8 9 11 11 9 10 9 8 8 9 9 8 5 6 6 7 6 5 4 3 4 3 2 3 3
5 8 8 10 9 4 6 5 4 4 4 4 5 6 8 7 6 6 6 9 9 12 10 10 11 10 7 7 8 10 6 7 7 7 6 6 5 5 4 3 3 2 3 3
4 4 3 2 5 12 13 7 6 7 7 4 6 6 8 6 7 6 8 9 10 10 11 10 12 11 9 7 6 9 7 7 7 6 5 4 4 4 4 3 2 2 3 4
4 7 6 6 9 4 10 9 7 4 5 5 4 6 9 7 7 8 9 10 10 11 10 11 11 11 10 9 8 7 7 7 7 5 4 4 3 3 3 3 2 4 4 5
6 9 7 9 7 4 5 4 4 7 9 10 8 5 5 8 9 9 9 10 12 12 10 10 11 12 11 10 9 7 7 6 6 5 3 2 3 2 2 3 4 8 9 10
Wind_Direction
356 42 330 281 210 244 268 261 274 283 286 292 272 288 292 304 304 285 282 291 300 283 292 289 212 194 175 171 172 177 174 172 163 154 133 146 170 172 183 185 174 160 155 155
5 277 237 269 264 278 282 297 293 297 321 247 325 306 309 6 334 339 4 353 332 321 306 304 243 196 188 176 175 174 177 173 171 162 126 117 144 177 161 135 114 125 140 167
217 267 299 336 317 334 301 249 321 297 335 55 343 345 355 354 354 355 353 333 320 309 302 298 274 204 192 180 174 175 176 177 173 142 122 97 97 88 97 118 95 90 91 107
242 295 337 321 268 307 305 186 318 311 359 14 16 305 10 360 351 347 342 335 319 311 303 288 269 219 196 195 177 177 176 177 161 154 149 167 174 145 120 113 118 107 71 24
271 326 344 314 296 242 266 328 48 88 346 309 14 320 333 11 349 336 327 336 323 313 304 293 279 247 204 188 184 178 175 178 171 162 169 170 94 95 103 96 94 99 104 92
261 301 247 269 319 198 306 21 62 75 305 41 353 328 338 355 340 317 321 337 336 334 323 311 259 189 175 165 173 173 167 124 116 115 117 118 116 121 123 133 134 146 165 200
330 310 299 322 336 10 10 10 357 22 9 303 337 320 5 347 329 322 330 347 354 5 4 64 107 126 131 145 149 147 146 121 120 119 125 127 141 146 158 165 178 165 181 201
17 336 6 349 35 293 7 39 98 25 344 314 339 350 330 333 332 347 10 12 18 11 19 19 45 103 120 110 109 111 114 114 118 132 139 137 124 166 87 156 151 160 174 186
13 276 311 286 332 355 358 33 110 118 273 284 298 13 207 6 355 355 6 9 13 12 17 27 31 51 88 90 104 114 119 112 110 123 129 143 176 138 137 147 145 159 162 163
194 297 256 291 163 42 84 147 33 42 23 339 317 359 330 4 341 349 6 9 3 10 22 27 27 44 60 73 83 86 108 133 115 117 137 125 133 103 112 111 116 128 130 131
135 124 289 299 26 322 3 25 42 125 64 345 316 37 325 35 310 350 359 9 10 11 21 35 44 53 57 66 60 74 68 68 66 70 70 79 77 74 79 84 94 109 108 122
94 146 279 266 306 268 141 116 96 76 321 253 290 291 327 309 287 348 3 3 13 19 26 31 46 61 67 66 66 65 64 71 78 82 78 77 72 70 71 73 78 94 94 92
180 335 328 352 6 4 43 81 126 125 109 220 311 343 71 303 24 353 18 19 21 36 31 50 55 58 62 61 67 72 70 78 77 80 83 76 77 77 78 80 82 84 91 88
112 166 184 211 229 212 293 276 160 147 197 200 231 298 307 22 52 29 30 37 54 52 49 67 72 73 73 73 75 71 73 75 80 81 80 80 81 82 81 78 74 74 75 77
110 240 199 250 257 236 255 268 238 206 214 211 201 227 257 263 133 153 103 80 74 73 75 70 75 78 79 80 81 81 77 77 82 84 81 80 83 83 83 80 77 75 70 69
344 247 356 285 287 180 258 246 227 223 222 252 248 273 176 170 140 147 154 125 108 95 83 83 85 85 84 87 88 88 86 82 90 86 86 85 82 79 75 76 74 72 71 68
344 93 39 273 327 305 285 222 187 183 193 166 193 216 162 172 190 196 180 168 153 139 127 115 110 108 106 99 101 97 96 95 89 90 87 84 82 77 71 74 76 73 67 63
136 105 127 278 325 266 244 198 214 213 236 207 221 206 178 176 174 187 186 177 169 160 150 140 134 126 119 115 108 110 104 97 98 98 100 103 108 113 118 114 109 105 74 43
154 123 217 293 281 295 293 189 171 174 280 197 199 175 155 139 127 256 197 192 179 172 162 149 142 132 130 129 129 121 117 118 116 114 113 113 113 108 97 90 78 58 26 8
88 80 146 129 242 255 246 248 156 105 287 201 175 171 157 153 155 242 180 181 168 161 156 152 143 131 133 136 134 119 113 108 101 101 95 89 83 82 86 65 53 39 16 353
128 150 195 192 257 282 245 239 156 117 241 171 182 174 157 187 191 144 142 150 153 155 153 143 143 143 139 137 127 112 115 105 111 106 98 87 85 90 85 90 59 26 16 355
166 151 189 129 208 278 173 86 184 211 214 181 193 189 193 204 155 160 166 158 155 148 143 145 136 135 139 139 128 124 116 124 116 110 105 101 88 72 61 48 43 51 16 344
211 190 175 185 210 230 210 220 208 176 192 193 194 203 197 194 205 169 170 165 161 154 147 143 138 134 134 142 142 132 141 136 122 113 103 92 80 62 44 32 24 15 359 342
244 177 211 131 230 226 245 255 237 202 225 213 213 189 177 186 179 171 158 161 155 153 151 146 142 142 138 142 131 127 138 130 122 113 104 93 77 60 34 38 30 348 356 336
192 136 177 267 278 273 253 240 251 213 223 247 228 194 197 181 180 170 166 166 162 156 148 152 150 146 143 140 131 134 134 136 123 120 117 103 80 47 26 26 8 359 340 322
188 174 186 222 205 203 225 180 183 210 223 220 199 209 205 190 179 165 170 167 161 158 152 147 145 143 147 143 139 140 142 144 140 132 134 125 94 61 47 10 355 2 352 344